Year,Month,Day,Hour,Minute,Value (Times are PST for temperature in C)
2019,02,06,00,00,-1.50
2019,02,06,00,01,-1.50
2019,02,06,00,02,-1.50
2019,02,06,00,03,-1.50
2019,02,06,00,04,-1.40
2019,02,06,00,05,-1.40
2019,02,06,00,06,-1.40
2019,02,06,00,07,-1.40
2019,02,06,00,08,-1.40
2019,02,06,00,09,-1.40
2019,02,06,00,10,-1.40
2019,02,06,00,11,-1.30
2019,02,06,00,12,-1.30
2019,02,06,00,13,-1.30
2019,02,06,00,14,-1.30
2019,02,06,00,15,-1.30
2019,02,06,00,16,-1.30
2019,02,06,00,17,-1.30
2019,02,06,00,18,-1.30
2019,02,06,00,19,-1.30
2019,02,06,00,20,-1.30
2019,02,06,00,21,-1.30
2019,02,06,00,22,-1.30
2019,02,06,00,23,-1.40
2019,02,06,00,24,-1.40
2019,02,06,00,25,-1.40
2019,02,06,00,26,-1.40
2019,02,06,00,27,-1.40
2019,02,06,00,28,-1.40
2019,02,06,00,29,-1.50
2019,02,06,00,30,-1.50
2019,02,06,00,31,-1.50
2019,02,06,00,32,-1.60
2019,02,06,00,33,-1.60
2019,02,06,00,34,-1.60
2019,02,06,00,35,-1.60
2019,02,06,00,36,-1.60
2019,02,06,00,37,-1.60
2019,02,06,00,38,-1.60
2019,02,06,00,39,-1.60
2019,02,06,00,40,-1.60
2019,02,06,00,41,-1.60
2019,02,06,00,42,-1.70
2019,02,06,00,43,-1.70
2019,02,06,00,44,-1.70
2019,02,06,00,45,-1.70
2019,02,06,00,46,-1.70
2019,02,06,00,47,-1.70
2019,02,06,00,48,-1.70
2019,02,06,00,49,-1.70
2019,02,06,00,50,-1.70
2019,02,06,00,51,-1.70
2019,02,06,00,52,-1.70
2019,02,06,00,53,-1.70
2019,02,06,00,54,-1.70
2019,02,06,00,55,-1.70
2019,02,06,00,56,-1.80
2019,02,06,00,57,-1.80
2019,02,06,00,58,-1.80
2019,02,06,00,59,-1.80
2019,02,06,01,00,-1.80
2019,02,06,01,01,-1.80
2019,02,06,01,02,-1.80
2019,02,06,01,03,-1.80
2019,02,06,01,04,-1.80
2019,02,06,01,05,-1.80
2019,02,06,01,06,-1.90
2019,02,06,01,07,-1.90
2019,02,06,01,08,-1.90
2019,02,06,01,09,-1.90
2019,02,06,01,10,-1.90
2019,02,06,01,11,-2.00
2019,02,06,01,12,-2.00
2019,02,06,01,13,-2.00
2019,02,06,01,14,-2.00
2019,02,06,01,15,-2.10
2019,02,06,01,16,-2.10
2019,02,06,01,17,-2.10
2019,02,06,01,18,-2.10
2019,02,06,01,19,-2.10
2019,02,06,01,20,-2.10
2019,02,06,01,21,-2.10
2019,02,06,01,22,-2.10
2019,02,06,01,23,-2.10
2019,02,06,01,24,-2.10
2019,02,06,01,25,-2.10
2019,02,06,01,26,-2.10
2019,02,06,01,27,-2.10
2019,02,06,01,28,-2.10
2019,02,06,01,29,-2.10
2019,02,06,01,30,-2.10
2019,02,06,01,31,-2.20
2019,02,06,01,32,-2.20
2019,02,06,01,33,-2.20
2019,02,06,01,34,-2.20
2019,02,06,01,35,-2.20
2019,02,06,01,36,-2.20
2019,02,06,01,37,-2.20
2019,02,06,01,38,-2.20
2019,02,06,01,39,-2.20
2019,02,06,01,40,-2.20
2019,02,06,01,41,-2.20
2019,02,06,01,42,-2.20
2019,02,06,01,43,-2.20
2019,02,06,01,44,-2.20
2019,02,06,01,45,-2.20
2019,02,06,01,46,-2.20
2019,02,06,01,47,-2.20
2019,02,06,01,48,-2.20
2019,02,06,01,49,-2.20
2019,02,06,01,50,-2.20
2019,02,06,01,51,-2.30
2019,02,06,01,52,-2.30
2019,02,06,01,53,-2.30
2019,02,06,01,54,-2.30
2019,02,06,01,55,-2.30
2019,02,06,01,56,-2.30
2019,02,06,01,57,-2.30
2019,02,06,01,58,-2.30
2019,02,06,01,59,-2.30
2019,02,06,02,00,-2.30
2019,02,06,02,01,-2.30
2019,02,06,02,02,-2.30
2019,02,06,02,03,-2.30
2019,02,06,02,04,-2.30
2019,02,06,02,05,-2.30
2019,02,06,02,06,-2.30
2019,02,06,02,07,-2.30
2019,02,06,02,08,-2.30
2019,02,06,02,09,-2.30
2019,02,06,02,10,-2.30
2019,02,06,02,11,-2.30
2019,02,06,02,12,-2.30
2019,02,06,02,13,-2.30
2019,02,06,02,14,-2.30
2019,02,06,02,15,-2.30
2019,02,06,02,16,-2.30
2019,02,06,02,17,-2.30
2019,02,06,02,18,-2.30
2019,02,06,02,19,-2.30
2019,02,06,02,20,-2.30
2019,02,06,02,21,-2.30
2019,02,06,02,22,-2.30
2019,02,06,02,23,-2.30
2019,02,06,02,24,-2.30
2019,02,06,02,25,-2.30
2019,02,06,02,26,-2.30
2019,02,06,02,27,-2.30
2019,02,06,02,28,-2.30
2019,02,06,02,29,-2.30
2019,02,06,02,30,-2.30
2019,02,06,02,31,-2.30
2019,02,06,02,32,-2.30
2019,02,06,02,33,-2.30
2019,02,06,02,34,-2.30
2019,02,06,02,35,-2.30
2019,02,06,02,36,-2.30
2019,02,06,02,37,-2.30
2019,02,06,02,38,-2.30
2019,02,06,02,39,-2.30
2019,02,06,02,40,-2.30
2019,02,06,02,41,-2.30
2019,02,06,02,42,-2.20
2019,02,06,02,43,-2.20
2019,02,06,02,44,-2.20
2019,02,06,02,45,-2.20
2019,02,06,02,46,-2.20
2019,02,06,02,47,-2.20
2019,02,06,02,48,-2.20
2019,02,06,02,49,-2.20
2019,02,06,02,50,-2.20
2019,02,06,02,51,-2.20
2019,02,06,02,52,-2.20
2019,02,06,02,53,-2.20
2019,02,06,02,54,-2.20
2019,02,06,02,55,-2.20
2019,02,06,02,56,-2.20
2019,02,06,02,57,-2.20
2019,02,06,02,58,-2.20
2019,02,06,02,59,-2.20
2019,02,06,03,00,-2.20
2019,02,06,03,01,-2.10
2019,02,06,03,02,-2.10
2019,02,06,03,03,-2.10
2019,02,06,03,04,-2.10
2019,02,06,03,05,-2.10
2019,02,06,03,06,-2.10
2019,02,06,03,07,-2.10
2019,02,06,03,08,-2.10
2019,02,06,03,09,-2.00
2019,02,06,03,10,-2.00
2019,02,06,03,11,-2.00
2019,02,06,03,12,-2.00
2019,02,06,03,13,-2.00
2019,02,06,03,14,-2.00
2019,02,06,03,15,-2.00
2019,02,06,03,16,-1.90
2019,02,06,03,17,-1.90
2019,02,06,03,18,-1.90
2019,02,06,03,19,-1.90
2019,02,06,03,20,-1.90
2019,02,06,03,21,-1.90
2019,02,06,03,22,-1.90
2019,02,06,03,23,-1.90
2019,02,06,03,24,-1.90
2019,02,06,03,25,-1.90
2019,02,06,03,26,-1.90
2019,02,06,03,27,-1.90
2019,02,06,03,28,-1.90
2019,02,06,03,29,-1.90
2019,02,06,03,30,-1.90
2019,02,06,03,31,-2.00
2019,02,06,03,32,-2.00
2019,02,06,03,33,-2.00
2019,02,06,03,34,-2.10
2019,02,06,03,35,-2.10
2019,02,06,03,36,-2.20
2019,02,06,03,37,-2.20
2019,02,06,03,38,-2.20
2019,02,06,03,39,-2.30
2019,02,06,03,40,-2.30
2019,02,06,03,41,-2.30
2019,02,06,03,42,-2.30
2019,02,06,03,43,-2.40
2019,02,06,03,44,-2.40
2019,02,06,03,45,-2.40
2019,02,06,03,46,-2.50
2019,02,06,03,47,-2.50
2019,02,06,03,48,-2.50
2019,02,06,03,49,-2.50
2019,02,06,03,50,-2.60
2019,02,06,03,51,-2.60
2019,02,06,03,52,-2.60
2019,02,06,03,53,-2.60
2019,02,06,03,54,-2.60
2019,02,06,03,55,-2.60
2019,02,06,03,56,-2.70
2019,02,06,03,57,-2.70
2019,02,06,03,58,-2.70
2019,02,06,03,59,-2.70
2019,02,06,04,00,-2.70
2019,02,06,04,01,-2.70
2019,02,06,04,02,-2.70
2019,02,06,04,03,-2.70
2019,02,06,04,04,-2.70
2019,02,06,04,05,-2.70
2019,02,06,04,06,-2.70
2019,02,06,04,07,-2.70
2019,02,06,04,08,-2.80
2019,02,06,04,09,-2.80
2019,02,06,04,10,-2.80
2019,02,06,04,11,-2.80
2019,02,06,04,12,-2.80
2019,02,06,04,13,-2.80
2019,02,06,04,14,-2.80
2019,02,06,04,15,-2.80
2019,02,06,04,16,-2.80
2019,02,06,04,17,-2.80
2019,02,06,04,18,-2.80
2019,02,06,04,19,-2.80
2019,02,06,04,20,-2.80
2019,02,06,04,21,-2.80
2019,02,06,04,22,-2.80
2019,02,06,04,23,-2.80
2019,02,06,04,24,-2.90
2019,02,06,04,25,-2.90
2019,02,06,04,26,-2.90
2019,02,06,04,27,-2.90
2019,02,06,04,28,-2.90
2019,02,06,04,29,-2.90
2019,02,06,04,30,-2.90
2019,02,06,04,31,-3.00
2019,02,06,04,32,-3.00
2019,02,06,04,33,-3.00
2019,02,06,04,34,-3.00
2019,02,06,04,35,-3.00
2019,02,06,04,36,-2.90
2019,02,06,04,37,-2.90
2019,02,06,04,38,-2.90
2019,02,06,04,39,-2.90
2019,02,06,04,40,-2.90
2019,02,06,04,41,-2.90
2019,02,06,04,42,-2.90
2019,02,06,04,43,-2.90
2019,02,06,04,44,-2.90
2019,02,06,04,45,-2.80
2019,02,06,04,46,-2.80
2019,02,06,04,47,-2.80
2019,02,06,04,48,-2.80
2019,02,06,04,49,-2.80
2019,02,06,04,50,-2.80
2019,02,06,04,51,-2.80
2019,02,06,04,52,-2.80
2019,02,06,04,53,-2.80
2019,02,06,04,54,-2.80
2019,02,06,04,55,-2.80
2019,02,06,04,56,-2.80
2019,02,06,04,57,-2.80
2019,02,06,04,58,-2.80
2019,02,06,04,59,-2.80
2019,02,06,05,00,-2.90
2019,02,06,05,01,-2.90
2019,02,06,05,02,-2.90
2019,02,06,05,03,-3.00
2019,02,06,05,04,-3.00
2019,02,06,05,05,-3.10
2019,02,06,05,06,-3.20
2019,02,06,05,07,-3.20
2019,02,06,05,08,-3.30
2019,02,06,05,09,-3.30
2019,02,06,05,10,-3.30
2019,02,06,05,11,-3.30
2019,02,06,05,12,-3.40
2019,02,06,05,13,-3.30
2019,02,06,05,14,-3.40
2019,02,06,05,15,-3.40
2019,02,06,05,16,-3.40
2019,02,06,05,17,-3.40
2019,02,06,05,18,-3.40
2019,02,06,05,19,-3.40
2019,02,06,05,20,-3.40
2019,02,06,05,21,-3.40
2019,02,06,05,22,-3.40
2019,02,06,05,23,-3.40
2019,02,06,05,24,-3.40
2019,02,06,05,25,-3.40
2019,02,06,05,26,-3.40
2019,02,06,05,27,-3.40
2019,02,06,05,28,-3.40
2019,02,06,05,29,-3.40
2019,02,06,05,30,-3.40
2019,02,06,05,31,-3.40
2019,02,06,05,32,-3.40
2019,02,06,09,47,-0.40
2019,02,06,09,48,-0.40
2019,02,06,09,49,-0.30
2019,02,06,09,50,-0.30
2019,02,06,09,51,-0.30
2019,02,06,09,52,-0.20
2019,02,06,09,53,-0.20
2019,02,06,09,54,-0.20
2019,02,06,09,55,-0.10
2019,02,06,09,56,-0.10
2019,02,06,09,57,-0.10
2019,02,06,09,58,-0.10
2019,02,06,09,59,0.00
2019,02,06,10,00,0.00
2019,02,06,10,01,0.00
2019,02,06,10,02,0.10
2019,02,06,10,03,0.10
2019,02,06,10,04,0.10
2019,02,06,10,05,0.10
2019,02,06,10,06,0.10
2019,02,06,10,07,0.20
2019,02,06,10,08,0.20
2019,02,06,10,09,0.20
2019,02,06,10,10,0.30
2019,02,06,10,11,0.30
2019,02,06,10,12,0.40
2019,02,06,10,13,0.50
2019,02,06,10,14,0.50
2019,02,06,10,15,0.60
2019,02,06,10,16,0.70
2019,02,06,10,17,0.80
2019,02,06,10,18,0.80
2019,02,06,10,19,0.90
2019,02,06,10,20,1.00
2019,02,06,10,21,1.00
2019,02,06,10,22,1.10
2019,02,06,10,23,1.20
2019,02,06,10,24,1.20
2019,02,06,10,25,1.30
2019,02,06,10,26,1.30
2019,02,06,10,27,1.30
2019,02,06,10,28,1.40
2019,02,06,10,29,1.40
2019,02,06,10,30,1.40
2019,02,06,10,31,1.40
2019,02,06,10,32,1.40
2019,02,06,10,33,1.40
2019,02,06,10,34,1.40
2019,02,06,10,35,1.40
2019,02,06,10,36,1.40
2019,02,06,10,37,1.40
2019,02,06,10,38,1.40
2019,02,06,10,39,1.40
2019,02,06,10,40,1.40
2019,02,06,10,41,1.50
2019,02,06,10,42,1.50
2019,02,06,10,43,1.50
2019,02,06,10,44,1.50
2019,02,06,10,45,1.50
2019,02,06,10,46,1.50
2019,02,06,10,47,1.50
2019,02,06,10,48,1.50
2019,02,06,10,49,1.60
2019,02,06,10,50,1.60
2019,02,06,10,51,1.60
2019,02,06,10,52,1.50
2019,02,06,10,53,1.50
2019,02,06,10,54,1.40
2019,02,06,10,55,1.40
2019,02,06,10,56,1.30
2019,02,06,10,57,1.30
2019,02,06,10,58,1.30
2019,02,06,10,59,1.30
2019,02,06,11,00,1.30
2019,02,06,11,01,1.30
2019,02,06,11,02,1.30
2019,02,06,11,03,1.30
2019,02,06,11,04,1.30
2019,02,06,11,05,1.50
2019,02,06,11,06,1.50
2019,02,06,11,07,1.60
2019,02,06,11,08,1.60
2019,02,06,11,09,1.70
2019,02,06,11,10,1.80
2019,02,06,11,11,1.90
2019,02,06,11,12,1.90
2019,02,06,11,13,2.00
2019,02,06,11,14,2.10
2019,02,06,11,15,2.10
2019,02,06,11,16,2.20
2019,02,06,11,17,2.20
2019,02,06,11,18,2.10
2019,02,06,11,19,2.10
2019,02,06,11,20,2.10
2019,02,06,11,21,2.00
2019,02,06,11,22,2.00
2019,02,06,11,23,2.00
2019,02,06,11,24,1.90
2019,02,06,11,25,1.90
2019,02,06,11,26,1.90
2019,02,06,11,27,1.90
2019,02,06,11,28,1.90
2019,02,06,11,29,1.90
2019,02,06,11,30,1.90
2019,02,06,11,31,1.90
2019,02,06,11,32,1.90
2019,02,06,11,33,1.90
2019,02,06,11,34,1.80
2019,02,06,11,35,1.80
2019,02,06,11,36,1.70
2019,02,06,11,37,1.70
2019,02,06,11,38,1.70
2019,02,06,11,39,1.80
2019,02,06,11,40,1.80
2019,02,06,11,41,1.80
2019,02,06,11,42,1.80
2019,02,06,11,43,1.80
2019,02,06,11,44,1.80
2019,02,06,11,45,1.80
2019,02,06,11,46,1.80
2019,02,06,11,47,1.80
2019,02,06,11,48,1.80
2019,02,06,11,49,1.80
2019,02,06,11,50,1.80
2019,02,06,11,51,1.80
2019,02,06,11,52,1.80
2019,02,06,11,53,1.80
2019,02,06,11,54,1.80
2019,02,06,11,55,1.70
2019,02,06,11,56,1.80
2019,02,06,11,57,1.80
2019,02,06,11,58,1.80
2019,02,06,11,59,1.80
2019,02,06,12,00,1.80
2019,02,06,12,01,1.90
2019,02,06,12,02,1.90
2019,02,06,12,03,1.90
2019,02,06,12,04,2.00
2019,02,06,12,05,2.00
2019,02,06,12,06,2.10
2019,02,06,12,07,2.10
2019,02,06,12,08,2.20
2019,02,06,12,09,2.20
2019,02,06,12,10,2.20
2019,02,06,12,11,2.20
2019,02,06,12,12,2.20
2019,02,06,12,13,2.20
2019,02,06,12,14,2.20
2019,02,06,12,15,2.10
2019,02,06,12,16,2.10
2019,02,06,12,17,2.10
2019,02,06,12,18,2.10
2019,02,06,12,19,2.10
2019,02,06,12,20,2.10
2019,02,06,12,21,2.20
2019,02,06,12,22,2.20
2019,02,06,12,23,2.20
2019,02,06,12,24,2.20
2019,02,06,12,25,2.30
2019,02,06,12,26,2.30
2019,02,06,12,27,2.30
2019,02,06,12,28,2.30
2019,02,06,12,29,2.30
2019,02,06,12,30,2.30
2019,02,06,12,31,2.30
2019,02,06,12,32,2.30
2019,02,06,12,33,2.30
2019,02,06,12,34,2.30
2019,02,06,12,35,2.30
2019,02,06,12,36,2.30
2019,02,06,12,37,2.30
2019,02,06,12,38,2.30
2019,02,06,12,39,2.30
2019,02,06,12,40,2.30
2019,02,06,12,41,2.30
2019,02,06,12,42,2.40
2019,02,06,12,43,2.40
2019,02,06,12,44,2.40
2019,02,06,12,45,2.40
2019,02,06,12,46,2.40
2019,02,06,12,47,2.50
2019,02,06,12,48,2.50
2019,02,06,12,49,2.60
2019,02,06,12,50,2.60
2019,02,06,12,51,2.70
2019,02,06,12,52,2.70
2019,02,06,12,53,2.60
2019,02,06,12,54,2.70
2019,02,06,12,55,2.70
2019,02,06,12,56,2.70
2019,02,06,12,57,2.70
2019,02,06,12,58,2.80
2019,02,06,12,59,2.80
2019,02,06,13,00,2.80
2019,02,06,13,01,2.80
2019,02,06,13,02,2.80
2019,02,06,13,03,2.70
2019,02,06,13,04,2.70
2019,02,06,13,05,2.70
2019,02,06,13,06,2.70
2019,02,06,13,07,2.70
2019,02,06,13,08,2.70
2019,02,06,13,09,2.70
2019,02,06,13,10,2.70
2019,02,06,13,11,2.70
2019,02,06,13,12,2.70
2019,02,06,13,13,2.70
2019,02,06,13,14,2.80
2019,02,06,13,15,2.80
2019,02,06,13,16,2.80
2019,02,06,13,17,2.80
2019,02,06,13,18,2.80
2019,02,06,13,19,2.80
2019,02,06,13,20,2.80
2019,02,06,13,21,2.80
2019,02,06,13,22,2.80
2019,02,06,13,23,2.70
2019,02,06,13,24,2.70
2019,02,06,13,25,2.70
2019,02,06,13,26,2.70
2019,02,06,13,27,2.70
2019,02,06,13,28,2.60
2019,02,06,13,29,2.60
2019,02,06,13,30,2.50
2019,02,06,13,31,2.50
2019,02,06,13,32,2.50
2019,02,06,13,33,2.50
2019,02,06,13,34,2.50
2019,02,06,13,35,2.60
2019,02,06,13,36,2.60
2019,02,06,13,37,2.70
2019,02,06,13,38,2.70
2019,02,06,13,39,2.70
2019,02,06,13,40,2.70
2019,02,06,13,41,2.70
2019,02,06,13,42,2.70
2019,02,06,13,43,2.70
2019,02,06,13,44,2.70
2019,02,06,13,45,2.70
2019,02,06,13,46,2.70
2019,02,06,13,47,2.60
2019,02,06,13,48,2.60
2019,02,06,13,49,2.70
2019,02,06,13,50,2.60
2019,02,06,13,51,2.60
2019,02,06,13,52,2.50
2019,02,06,13,53,2.50
2019,02,06,13,54,2.60
2019,02,06,13,55,2.60
2019,02,06,13,56,2.70
2019,02,06,13,57,2.70
2019,02,06,13,58,2.70
2019,02,06,13,59,2.70
2019,02,06,14,00,2.70
2019,02,06,14,01,2.70
2019,02,06,14,02,2.70
2019,02,06,14,03,2.70
2019,02,06,14,04,2.80
2019,02,06,14,05,2.80
2019,02,06,14,06,2.80
2019,02,06,14,07,2.80
2019,02,06,14,08,2.80
2019,02,06,14,09,2.80
2019,02,06,14,10,2.80
2019,02,06,14,11,2.80
2019,02,06,14,12,2.80
2019,02,06,14,13,2.80
2019,02,06,14,14,2.90
2019,02,06,14,15,2.90
2019,02,06,14,16,3.00
2019,02,06,14,17,3.00
2019,02,06,14,18,3.00
2019,02,06,14,19,3.00
2019,02,06,14,20,2.90
2019,02,06,14,21,2.90
2019,02,06,14,22,2.90
2019,02,06,14,23,2.90
2019,02,06,14,24,2.80
2019,02,06,14,25,2.80
2019,02,06,14,26,2.90
2019,02,06,14,27,2.90
2019,02,06,14,28,2.90
2019,02,06,14,29,2.90
2019,02,06,14,30,2.90
2019,02,06,14,31,2.90
2019,02,06,14,32,2.90
2019,02,06,14,33,2.90
2019,02,06,14,34,2.90
2019,02,06,14,35,3.00
2019,02,06,14,36,3.00
2019,02,06,14,37,3.10
2019,02,06,14,38,3.10
2019,02,06,14,39,3.10
2019,02,06,14,40,3.10
2019,02,06,14,41,3.20
2019,02,06,14,42,3.20
2019,02,06,14,43,3.20
2019,02,06,14,44,3.30
2019,02,06,14,45,3.30
2019,02,06,14,46,3.30
2019,02,06,14,47,3.30
2019,02,06,14,48,3.20
2019,02,06,14,49,3.20
2019,02,06,14,50,3.20
2019,02,06,14,51,3.20
2019,02,06,14,52,3.20
2019,02,06,14,53,3.20
2019,02,06,14,54,3.20
2019,02,06,14,55,3.20
2019,02,06,14,56,3.20
2019,02,06,14,57,3.20
2019,02,06,14,58,3.20
2019,02,06,14,59,3.30
2019,02,06,15,00,3.30
2019,02,06,15,01,3.20
2019,02,06,15,02,3.20
2019,02,06,15,03,3.20
2019,02,06,15,04,3.10
2019,02,06,15,05,3.10
2019,02,06,15,06,3.10
2019,02,06,15,07,3.10
2019,02,06,15,08,3.10
2019,02,06,15,09,3.10
2019,02,06,15,10,3.20
2019,02,06,15,11,3.20
2019,02,06,15,12,3.20
2019,02,06,15,13,3.20
2019,02,06,15,14,3.20
2019,02,06,15,15,3.30
2019,02,06,15,16,3.30
2019,02,06,15,17,3.30
2019,02,06,15,18,3.30
2019,02,06,15,19,3.30
2019,02,06,15,20,3.30
2019,02,06,15,21,3.30
2019,02,06,15,22,3.30
2019,02,06,15,23,3.30
2019,02,06,15,24,3.20
2019,02,06,15,25,3.20
2019,02,06,15,26,3.20
2019,02,06,15,27,3.10
2019,02,06,15,28,3.10
2019,02,06,15,29,3.10
2019,02,06,15,30,3.10
2019,02,06,15,31,3.10
2019,02,06,15,32,3.10
2019,02,06,15,33,3.00
2019,02,06,15,34,3.00
2019,02,06,15,35,2.90
2019,02,06,15,36,2.90
2019,02,06,15,37,3.00
2019,02,06,15,38,3.00
2019,02,06,15,39,3.00
2019,02,06,15,40,3.00
2019,02,06,15,41,3.00
2019,02,06,15,42,3.00
2019,02,06,15,43,3.00
2019,02,06,15,44,3.00
2019,02,06,15,45,3.00
2019,02,06,15,46,3.00
2019,02,06,15,47,3.10
2019,02,06,15,48,3.10
2019,02,06,15,49,3.10
2019,02,06,15,50,3.00
2019,02,06,15,51,3.10
2019,02,06,15,52,3.00
2019,02,06,15,53,3.10
2019,02,06,15,54,3.10
2019,02,06,15,55,3.10
2019,02,06,15,56,3.00
2019,02,06,15,57,3.00
2019,02,06,15,58,3.00
2019,02,06,15,59,3.00
2019,02,06,16,00,2.90
2019,02,06,16,01,2.90
2019,02,06,16,02,2.90
2019,02,06,16,03,2.80
2019,02,06,16,04,2.80
2019,02,06,16,05,2.80
2019,02,06,16,06,2.80
2019,02,06,16,07,2.80
2019,02,06,16,08,2.80
2019,02,06,16,09,2.80
2019,02,06,16,10,2.80
2019,02,06,16,11,2.80
2019,02,06,16,12,2.70
2019,02,06,16,13,2.70
2019,02,06,16,14,2.70
2019,02,06,16,15,2.70
2019,02,06,16,16,2.70
2019,02,06,16,17,2.70
2019,02,06,16,18,2.70
2019,02,06,16,19,2.70
2019,02,06,16,20,2.70
2019,02,06,16,21,2.70
2019,02,06,16,22,2.70
2019,02,06,16,23,2.70
2019,02,06,16,24,2.70
2019,02,06,16,25,2.60
2019,02,06,16,26,2.60
2019,02,06,16,27,2.60
2019,02,06,16,28,2.60
2019,02,06,16,29,2.60
2019,02,06,16,30,2.60
2019,02,06,16,31,2.60
2019,02,06,16,32,2.50
2019,02,06,16,33,2.50
2019,02,06,16,34,2.50
2019,02,06,16,35,2.40
2019,02,06,16,36,2.40
2019,02,06,16,37,2.40
2019,02,06,16,38,2.40
2019,02,06,16,39,2.40
2019,02,06,16,40,2.40
2019,02,06,16,41,2.30
2019,02,06,16,42,2.30
2019,02,06,16,43,2.30
2019,02,06,16,44,2.30
2019,02,06,16,45,2.30
2019,02,06,16,46,2.30
2019,02,06,16,47,2.20
2019,02,06,16,48,2.20
2019,02,06,16,49,2.20
2019,02,06,16,50,2.20
2019,02,06,16,51,2.20
2019,02,06,16,52,2.20
2019,02,06,16,53,2.20
2019,02,06,16,54,2.20
2019,02,06,16,55,2.10
2019,02,06,16,56,2.10
2019,02,06,16,57,2.10
2019,02,06,16,58,2.10
2019,02,06,16,59,2.10
2019,02,06,17,00,2.10
2019,02,06,17,01,2.10
2019,02,06,17,02,2.00
2019,02,06,17,03,2.00
2019,02,06,17,04,2.00
2019,02,06,17,05,2.00
2019,02,06,17,06,2.00
2019,02,06,17,07,2.00
2019,02,06,17,08,1.90
2019,02,06,17,09,1.90
2019,02,06,17,10,1.90
2019,02,06,17,11,1.90
2019,02,06,17,12,1.90
2019,02,06,17,13,1.90
2019,02,06,17,14,1.90
2019,02,06,17,15,1.80
2019,02,06,17,16,1.80
2019,02,06,17,17,1.80
2019,02,06,17,18,1.80
2019,02,06,17,19,1.80
2019,02,06,17,20,1.80
2019,02,06,17,21,1.80
2019,02,06,17,22,1.80
2019,02,06,17,23,1.70
2019,02,06,17,24,1.70
2019,02,06,17,25,1.70
2019,02,06,17,26,1.70
2019,02,06,17,27,1.70
2019,02,06,17,28,1.60
2019,02,06,17,29,1.60
2019,02,06,17,30,1.60
2019,02,06,17,31,1.60
2019,02,06,17,32,1.50
2019,02,06,17,33,1.50
2019,02,06,17,34,1.40
2019,02,06,17,35,1.40
2019,02,06,17,36,1.40
2019,02,06,17,37,1.30
2019,02,06,17,38,1.30
2019,02,06,17,39,1.20
2019,02,06,17,40,1.20
2019,02,06,17,41,1.10
2019,02,06,17,42,1.10
2019,02,06,17,43,1.00
2019,02,06,17,44,1.00
2019,02,06,17,45,0.90
2019,02,06,17,46,0.80
2019,02,06,17,47,0.80
2019,02,06,17,48,0.70
2019,02,06,17,49,0.70
2019,02,06,17,50,0.60
2019,02,06,17,51,0.60
2019,02,06,17,52,0.50
2019,02,06,17,53,0.50
2019,02,06,17,54,0.40
2019,02,06,17,55,0.40
2019,02,06,17,56,0.40
2019,02,06,17,57,0.30
2019,02,06,17,58,0.30
2019,02,06,17,59,0.20
2019,02,06,18,00,0.20
2019,02,06,18,01,0.20
2019,02,06,18,02,0.10
2019,02,06,18,03,0.10
2019,02,06,18,04,0.10
2019,02,06,18,05,0.10
2019,02,06,18,06,0.00
2019,02,06,18,07,0.00
2019,02,06,18,08,-0.10
2019,02,06,18,09,-0.10
2019,02,06,18,10,-0.10
2019,02,06,18,11,-0.10
2019,02,06,18,12,-0.20
2019,02,06,18,13,-0.20
2019,02,06,18,14,-0.20
2019,02,06,18,15,-0.20
2019,02,06,18,16,-0.30
2019,02,06,18,17,-0.30
2019,02,06,18,18,-0.30
2019,02,06,18,19,-0.30
2019,02,06,18,20,-0.40
2019,02,06,18,21,-0.40
2019,02,06,18,22,-0.40
2019,02,06,18,23,-0.40
2019,02,06,18,24,-0.50
2019,02,06,18,25,-0.50
2019,02,06,18,26,-0.60
2019,02,06,18,27,-0.60
2019,02,06,18,28,-0.60
2019,02,06,18,29,-0.70
2019,02,06,18,30,-0.70
2019,02,06,18,31,-0.70
2019,02,06,18,32,-0.80
2019,02,06,18,33,-0.80
2019,02,06,18,34,-0.80
2019,02,06,18,35,-0.80
2019,02,06,18,36,-0.80
2019,02,06,18,37,-0.80
2019,02,06,18,38,-0.90
2019,02,06,18,39,-0.90
2019,02,06,18,40,-0.90
2019,02,06,18,41,-0.90
2019,02,06,18,42,-0.90
2019,02,06,18,43,-0.90
2019,02,06,18,44,-0.90
2019,02,06,18,45,-0.90
2019,02,06,18,46,-0.90
2019,02,06,18,47,-0.90
2019,02,06,18,48,-1.00
2019,02,06,18,49,-1.00
2019,02,06,18,50,-1.00
2019,02,06,18,51,-1.00
2019,02,06,18,52,-1.00
2019,02,06,18,53,-1.00
2019,02,06,18,54,-1.00
2019,02,06,18,55,-1.00
2019,02,06,18,56,-1.00
2019,02,06,18,57,-1.00
2019,02,06,18,58,-1.00
2019,02,06,18,59,-1.00
2019,02,06,19,00,-1.00
2019,02,06,19,01,-1.00
2019,02,06,19,02,-1.00
2019,02,06,19,03,-1.00
2019,02,06,19,04,-1.00
2019,02,06,19,05,-1.00
2019,02,06,19,06,-1.00
2019,02,06,19,07,-1.00
2019,02,06,19,08,-1.00
2019,02,06,19,09,-1.00
2019,02,06,19,10,-1.00
2019,02,06,19,11,-1.00
2019,02,06,19,12,-1.00
2019,02,06,19,13,-1.00
2019,02,06,19,14,-1.10
2019,02,06,19,15,-1.10
2019,02,06,19,16,-1.10
2019,02,06,19,17,-1.10
2019,02,06,19,18,-1.10
2019,02,06,19,19,-1.10
2019,02,06,19,20,-1.10
2019,02,06,19,21,-1.10
2019,02,06,19,22,-1.10
2019,02,06,19,23,-1.10
2019,02,06,19,24,-1.20
2019,02,06,19,25,-1.20
2019,02,06,19,26,-1.20
2019,02,06,19,27,-1.20
2019,02,06,19,28,-1.20
2019,02,06,19,29,-1.20
2019,02,06,19,30,-1.20
2019,02,06,19,31,-1.20
2019,02,06,19,32,-1.20
2019,02,06,19,33,-1.30
2019,02,06,19,34,-1.30
2019,02,06,19,35,-1.30
2019,02,06,19,36,-1.30
2019,02,06,19,37,-1.30
2019,02,06,19,38,-1.30
2019,02,06,19,39,-1.30
2019,02,06,19,40,-1.30
2019,02,06,19,41,-1.30
2019,02,06,19,42,-1.40
2019,02,06,19,43,-1.40
2019,02,06,19,44,-1.40
2019,02,06,19,45,-1.40
2019,02,06,19,46,-1.40
2019,02,06,19,47,-1.40
2019,02,06,19,48,-1.40
2019,02,06,19,49,-1.40
2019,02,06,19,50,-1.40
2019,02,06,19,51,-1.40
2019,02,06,19,52,-1.40
2019,02,06,19,53,-1.40
2019,02,06,19,54,-1.40
2019,02,06,19,55,-1.50
2019,02,06,19,56,-1.50
2019,02,06,19,57,-1.50
2019,02,06,19,58,-1.50
2019,02,06,19,59,-1.50
2019,02,06,20,00,-1.50
2019,02,06,20,01,-1.50
2019,02,06,20,02,-1.50
2019,02,06,20,03,-1.50
2019,02,06,20,04,-1.50
2019,02,06,20,05,-1.50
2019,02,06,20,06,-1.50
2019,02,06,20,07,-1.50
2019,02,06,20,08,-1.50
2019,02,06,20,09,-1.60
2019,02,06,20,10,-1.60
2019,02,06,20,11,-1.60
2019,02,06,20,12,-1.60
2019,02,06,20,13,-1.60
2019,02,06,20,14,-1.60
2019,02,06,20,15,-1.60
2019,02,06,20,16,-1.60
2019,02,06,20,17,-1.70
2019,02,06,20,18,-1.70
2019,02,06,20,19,-1.70
2019,02,06,20,20,-1.70
2019,02,06,20,21,-1.70
2019,02,06,20,22,-1.70
2019,02,06,20,23,-1.70
2019,02,06,20,24,-1.70
2019,02,06,20,25,-1.70
2019,02,06,20,26,-1.70
2019,02,06,20,27,-1.70
2019,02,06,20,28,-1.70
2019,02,06,20,29,-1.70
2019,02,06,20,30,-1.70
2019,02,06,20,31,-1.70
2019,02,06,20,32,-1.70
2019,02,06,20,33,-1.70
2019,02,06,20,34,-1.70
2019,02,06,20,35,-1.70
2019,02,06,20,36,-1.70
2019,02,06,20,37,-1.70
2019,02,06,20,38,-1.70
2019,02,06,20,39,-1.80
2019,02,06,20,40,-1.80
2019,02,06,20,41,-1.80
2019,02,06,20,42,-1.80
2019,02,06,20,43,-1.80
2019,02,06,20,44,-1.90
2019,02,06,20,45,-1.90
2019,02,06,20,46,-1.90
2019,02,06,20,47,-1.90
2019,02,06,20,48,-1.90
2019,02,06,20,49,-1.90
2019,02,06,20,50,-2.00
2019,02,06,20,51,-2.00
2019,02,06,20,52,-2.00
2019,02,06,20,53,-2.00
2019,02,06,20,54,-2.10
2019,02,06,20,55,-2.10
2019,02,06,20,56,-2.10
2019,02,06,20,57,-2.10
2019,02,06,20,58,-2.10
2019,02,06,20,59,-2.20
2019,02,06,21,00,-2.20
2019,02,06,21,01,-2.20
2019,02,06,21,02,-2.20
2019,02,06,21,03,-2.20
2019,02,06,21,04,-2.20
2019,02,06,21,05,-2.30
2019,02,06,21,06,-2.30
2019,02,06,21,07,-2.30
2019,02,06,21,08,-2.30
2019,02,06,21,09,-2.30
2019,02,06,21,10,-2.30
2019,02,06,21,11,-2.30
2019,02,06,21,12,-2.30
2019,02,06,21,13,-2.30
2019,02,06,21,14,-2.30
2019,02,06,21,15,-2.30
2019,02,06,21,16,-2.40
2019,02,06,21,17,-2.40
2019,02,06,21,18,-2.40
2019,02,06,21,19,-2.40
2019,02,06,21,20,-2.40
2019,02,06,21,21,-2.40
2019,02,06,21,22,-2.40
2019,02,06,21,23,-2.40
2019,02,06,21,24,-2.40
2019,02,06,21,25,-2.40
2019,02,06,21,26,-2.40
2019,02,06,21,27,-2.40
2019,02,06,21,28,-2.40
2019,02,06,21,29,-2.40
2019,02,06,21,30,-2.40
2019,02,06,21,31,-2.40
2019,02,06,21,32,-2.50
2019,02,06,21,33,-2.50
2019,02,06,21,34,-2.50
2019,02,06,21,35,-2.50
2019,02,06,21,36,-2.50
2019,02,06,21,37,-2.50
2019,02,06,21,38,-2.50
2019,02,06,21,39,-2.50
2019,02,06,21,40,-2.50
2019,02,06,21,41,-2.50
2019,02,06,21,42,-2.50
2019,02,06,21,43,-2.50
2019,02,06,21,44,-2.50
2019,02,06,21,45,-2.50
2019,02,06,21,46,-2.50
2019,02,06,21,47,-2.50
2019,02,06,21,48,-2.60
2019,02,06,21,49,-2.60
2019,02,06,21,50,-2.60
2019,02,06,21,51,-2.60
2019,02,06,21,52,-2.60
2019,02,06,21,53,-2.70
2019,02,06,21,54,-2.70